Date,TemperatureHighF,TemperatureAvgF,TemperatureLowF,DewpointHighF,DewpointAvgF,DewpointLowF,HumidityHigh,HumidityAvg,HumidityLow,PressureMaxIn,PressureMinIn,WindSpeedMaxMPH,WindSpeedAvgMPH,GustSpeedMaxMPH,PrecipitationSumIn
2013-1-1,41.2,39.0,35.6,30.0,28.5,26.8,73,66,57,30.23,30.12,7,1,7,0.00
2013-1-2,37.8,32.2,26.3,26.8,19.2,13.3,70,59,44,30.43,30.21,5,1,5,0.00
2013-1-3,42.5,29.6,16.9,23.4,17.2,10.6,78,61,44,30.43,30.32,9,1,9,0.00
2013-1-4,40.0,35.0,32.4,23.5,21.4,19.9,63,57,49,30.40,30.30,11,3,11,0.00
2013-1-5,46.6,36.1,31.0,26.0,22.5,20.3,73,58,42,30.57,30.34,12,1,12,0.00
2013-1-6,45.4,39.1,31.5,30.5,27.4,22.1,76,63,52,30.37,30.22,5,0,5,0.00
2013-1-7,45.4,36.8,23.0,30.9,24.8,16.3,75,62,48,30.64,30.35,7,1,7,0.00
2013-1-8,51.7,30.7,19.3,35.9,22.6,13.6,83,72,54,30.59,30.53,2,0,2,0.00
2013-1-9,51.8,36.4,23.0,43.7,28.8,17.6,85,75,52,30.61,30.43,9,1,9,0.00
2013-1-10,54.9,44.0,34.4,32.8,29.7,23.9,73,58,40,30.80,30.61,9,1,9,0.00
2013-1-11,48.1,40.3,33.5,38.9,33.6,27.3,89,78,58,30.67,30.30,4,0,4,0.10
2013-1-12,57.8,45.0,40.3,49.7,41.0,36.7,90,86,73,30.37,30.29,2,0,2,0.00
2013-1-13,57.2,48.6,41.4,51.8,44.9,37.8,92,87,81,30.29,30.14,3,0,3,0.00
2013-1-14,55.8,48.9,38.9,53.3,41.2,32.6,92,75,58,30.53,30.14,9,1,9,0.25
2013-1-15,39.8,38.0,33.8,34.7,33.0,30.9,89,82,74,30.55,30.35,3,0,3,0.58
2013-1-16,42.5,36.0,33.3,38.3,33.2,30.3,92,90,80,30.35,30.04,2,0,3,0.57
2013-1-17,43.0,39.4,34.9,36.4,29.4,24.1,81,68,51,30.34,30.18,7,1,7,0.00
2013-1-18,40.3,32.4,22.7,27.5,17.7,11.9,75,56,33,30.67,30.26,5,1,8,0.00
2013-1-19,59.9,39.0,22.3,29.5,23.1,15.9,80,57,29,30.54,30.11,6,1,7,0.00
2013-1-20,54.5,41.4,27.4,31.6,19.3,7.3,78,44,20,30.29,30.02,13,2,13,0.00
2013-1-21,45.5,32.7,26.3,22.1,15.9,9.2,62,50,32,30.29,30.01,9,1,9,0.00
2013-1-22,23.6,18.5,13.7,-0.3,-1.8,-4.0,49,41,33,30.45,30.31,9,2,9,0.00
2013-1-23,13.3,12.4,11.9,0.5,-0.2,-0.8,58,57,56,30.50,30.47,3,0,3,0.00
2013-1-25,59.8,20.2,17.8,14.3,10.9,2.8,76,67,53,30.17,29.78,4,0,4,0.00
2013-1-26,31.1,24.9,16.2,24.6,18.4,9.5,81,76,65,30.16,29.79,4,0,4,0.07
2013-1-27,37.8,27.4,19.1,21.7,16.8,11.2,74,65,49,30.31,30.16,5,0,5,0.01
2013-1-28,40.3,35.7,30.6,37.6,31.8,24.8,90,86,79,30.08,29.78,0,0,1,0.04
2013-1-29,69.8,51.6,40.1,56.9,45.5,35.1,93,81,60,29.85,29.68,4,0,4,0.00
2013-1-30,68.8,53.1,38.5,60.0,49.7,34.4,94,88,71,29.69,29.00,13,1,13,1.72
2013-1-31,55.1,37.6,29.0,52.8,25.7,11.7,93,62,47,29.63,28.94,16,4,16,0.21
2013-2-1,29.5,21.7,17.5,20.3,9.5,3.9,79,60,51,30.09,29.58,8,2,8,0.00
2013-2-2,28.4,22.4,12.8,18.4,12.1,4.1,76,64,55,30.09,29.73,5,0,5,0.00
2013-2-3,33.8,28.3,24.1,27.9,21.8,14.5,83,77,60,29.73,29.54,9,1,9,0.00
2013-2-4,36.4,30.0,24.3,25.8,17.6,12.3,78,60,46,29.80,29.61,7,1,7,0.00
2013-2-5,36.9,33.6,31.1,32.3,29.5,27.5,86,85,83,29.62,29.58,2,0,2,0.03
2013-2-6,37.1,34.5,28.4,30.3,26.2,21.1,76,72,65,30.07,29.77,7,1,7,0.00
2013-2-7,36.4,30.1,24.5,26.1,23.4,19.8,83,77,63,30.14,29.97,3,0,3,0.00
2013-2-8,40.1,35.2,32.8,32.8,26.4,21.5,83,70,63,29.77,29.56,10,2,10,0.01
2013-2-9,43.6,32.6,21.4,22.5,18.1,12.2,68,56,37,30.12,29.71,12,2,12,0.00
2013-2-10,46.6,28.8,16.2,23.4,16.4,9.6,79,62,36,30.17,29.90,7,1,7,0.00
2013-2-11,66.4,51.3,35.5,51.1,35.4,22.4,88,59,26,29.90,29.41,10,2,10,0.17
2013-2-12,58.3,47.4,35.8,30.3,26.2,21.0,61,44,28,29.72,29.58,11,2,11,0.00
2013-2-13,41.4,35.1,25.7,31.2,26.4,18.3,85,71,60,29.67,29.40,5,0,5,0.04
2013-2-14,36.4,33.0,27.0,31.4,25.8,20.1,84,75,65,29.70,29.51,8,1,8,0.08
2013-2-15,42.5,29.5,26.3,34.5,23.8,19.9,84,79,71,29.75,29.67,5,0,5,0.00
2013-2-17,29.2,25.3,22.7,13.6,9.1,5.8,57,50,41,29.96,29.73,15,2,15,0.00
2013-2-18,45.7,29.4,19.1,17.5,11.6,6.0,68,49,29,30.10,29.83,7,1,8,0.00
2013-2-19,52.9,37.6,22.7,40.3,26.8,15.0,87,66,46,29.83,29.41,13,2,13,0.05
2013-2-20,35.1,28.4,23.8,20.1,12.8,8.4,56,52,49,29.92,29.59,14,3,14,0.01
2013-2-21,39.2,29.0,23.4,18.2,13.7,9.3,60,53,41,30.07,29.85,11,2,11,0.00
2013-2-22,31.7,29.1,26.3,26.3,20.6,15.1,80,71,60,30.10,29.92,4,0,4,0.00
2013-2-23,48.1,36.1,31.3,39.0,30.9,26.6,87,81,71,29.90,29.58,5,0,5,0.01
2013-2-24,49.3,39.2,31.5,35.5,27.5,17.9,87,64,43,29.87,29.56,10,2,10,0.00
2013-2-25,34.0,29.5,25.2,22.1,18.9,16.9,73,64,54,29.95,29.86,5,0,5,0.00
2013-2-26,39.6,32.9,23.9,37.2,28.4,17.8,91,83,73,29.90,29.46,6,1,6,0.90
2013-2-27,47.9,42.7,37.4,35.8,33.8,32.3,91,72,57,29.45,29.33,6,1,6,0.00
2013-2-28,43.2,40.3,36.9,34.2,28.6,25.5,71,63,54,29.49,29.39,10,2,10,0.00
2013-3-1,40.5,37.7,33.5,29.4,27.1,22.9,69,65,57,29.65,29.48,8,1,8,0.00
2013-3-2,36.4,31.9,29.9,22.9,20.6,17.5,69,63,54,29.64,29.57,7,2,7,0.00
2013-3-3,42.1,33.0,28.6,20.7,18.8,16.3,66,56,40,29.68,29.56,12,3,12,0.00
2013-3-4,42.3,34.1,26.5,20.0,16.6,13.1,61,49,38,29.78,29.67,10,3,10,0.00
2013-3-5,50.0,39.4,28.8,24.1,19.9,14.9,58,46,32,29.80,29.56,6,1,6,0.00
2013-3-6,40.3,37.2,33.5,33.1,30.9,28.5,89,78,67,29.78,29.45,8,1,8,0.43
2013-3-7,47.2,40.6,37.3,30.0,28.1,25.9,70,61,49,29.92,29.77,9,2,9,0.00
2013-3-8,49.7,40.9,35.6,30.3,27.2,25.2,68,58,46,30.05,29.91,13,3,13,0.00
2013-3-9,62.6,43.2,30.2,29.3,25.5,21.2,70,52,25,30.11,29.98,5,1,5,0.00
2013-3-10,66.6,48.2,25.2,33.8,28.1,18.5,79,50,28,30.03,29.90,9,1,9,0.00
2013-3-11,55.6,45.2,34.6,47.3,35.7,25.0,76,69,60,29.92,29.62,4,0,5,0.00
2013-3-12,56.9,47.0,41.0,50.6,37.0,28.0,84,68,59,29.71,29.49,9,2,10,0.47
2013-3-13,40.7,34.2,30.6,25.6,22.5,19.3,74,63,49,29.78,29.66,10,2,11,0.02
2013-3-14,40.9,34.4,30.2,18.6,16.5,14.7,54,48,38,29.88,29.79,13,3,14,0.00
2013-3-15,56.5,47.2,33.8,33.6,28.6,18.7,56,49,41,29.78,29.52,8,2,9,0.00
2013-3-16,50.0,42.2,36.0,38.2,33.9,30.4,84,73,50,29.66,29.40,4,1,5,0.00
2013-3-17,39.4,36.8,33.5,31.6,27.4,23.9,84,69,55,29.98,29.66,6,1,7,0.00
2013-3-18,35.8,33.1,31.1,30.3,27.8,24.7,89,81,64,30.02,29.61,5,1,5,0.03
2013-3-19,54.7,38.6,32.8,36.3,28.1,12.7,90,71,28,29.67,29.48,12,2,14,0.29
2013-3-20,52.7,41.1,33.7,26.5,17.0,12.8,67,39,23,29.71,29.50,13,4,15,0.00
2013-3-21,35.8,31.1,27.2,24.5,14.1,7.9,64,50,35,29.62,29.52,15,3,17,0.00
2013-3-22,41.8,31.5,27.2,19.3,16.1,11.2,60,53,40,29.74,29.60,13,4,15,0.00
2013-3-23,55.3,41.9,23.8,26.6,21.9,14.7,72,47,29,29.75,29.64,11,2,13,0.00
2013-3-24,50.9,34.6,26.6,28.4,24.6,18.8,80,67,49,29.73,29.43,5,1,6,0.00
2013-3-25,34.6,33.5,32.6,30.4,29.3,28.0,86,85,83,29.47,29.29,0,0,0,0.62
2013-3-26,45.7,38.1,32.2,31.1,28.8,26.6,87,71,49,29.77,29.46,9,2,10,0.19
2013-3-27,47.5,41.1,34.6,31.2,27.5,24.5,71,59,42,29.89,29.76,13,3,16,0.00
2013-3-28,47.5,41.3,37.6,32.4,29.1,26.6,68,62,53,29.99,29.83,12,3,13,0.00
2013-3-29,55.8,44.8,32.8,33.3,28.8,23.4,77,55,34,30.00,29.89,10,1,12,0.00
2013-3-30,34.4,33.4,32.9,23.6,23.3,22.9,68,66,64,29.94,29.93,2,0,3,0.00
2013-3-31,50.0,48.5,47.2,45.8,44.3,42.9,88,85,83,29.54,29.50,6,1,7,0.01
2013-4-1,56.5,47.1,39.2,44.2,31.6,16.9,75,56,40,29.74,29.51,10,3,11,0.00
2013-4-2,48.8,39.1,33.1,19.3,16.3,13.0,50,40,28,29.92,29.73,9,2,11,0.00
2013-4-3,49.9,38.7,27.0,19.1,15.9,11.5,60,41,24,30.13,29.91,15,3,17,0.00
2013-4-4,49.1,33.9,20.0,19.7,14.6,10.3,69,47,28,30.13,29.80,9,1,10,0.00
2013-4-5,66.6,51.1,33.8,32.9,27.4,18.7,79,44,25,29.81,29.59,14,3,16,0.00
2013-4-6,59.8,45.4,30.6,25.4,22.1,17.9,60,41,24,30.06,29.82,8,2,10,0.00
2013-4-7,73.1,51.3,34.9,44.2,33.6,23.8,69,52,34,29.95,29.69,9,2,10,0.00
2013-4-8,77.0,59.2,45.7,49.2,44.1,38.3,79,59,33,29.82,29.67,4,0,4,0.00
2013-4-9,87.8,73.5,57.8,56.3,52.4,45.8,69,49,30,29.84,29.66,8,2,9,0.00
2013-4-10,90.4,74.1,54.5,59.3,53.6,46.6,77,51,29,29.72,29.53,10,2,11,0.00
2013-4-11,86.0,70.4,53.3,59.7,54.1,45.9,79,58,40,29.65,29.46,11,2,13,0.00
2013-4-12,65.3,56.3,53.5,58.0,51.4,49.7,90,84,76,29.53,29.35,13,2,15,0.59
2013-4-14,67.5,59.8,52.4,42.1,39.3,33.9,68,48,34,29.84,29.80,7,1,8,0.00
2013-4-15,65.2,60.1,51.5,51.5,48.9,44.8,79,67,59,30.00,29.91,7,2,8,0.00
2013-4-16,79.2,64.8,55.3,61.3,54.7,48.5,83,71,52,30.00,29.82,11,2,13,0.08
2013-4-17,70.4,63.4,54.7,61.6,56.7,50.8,91,79,66,29.95,29.86,8,1,13,0.12
2013-4-18,71.8,63.7,60.5,63.3,56.8,54.5,86,78,65,29.95,29.71,7,1,8,0.00
2013-4-20,59.4,52.5,43.9,33.1,29.6,25.8,51,42,32,30.08,29.78,13,3,15,0.00
2013-4-21,56.7,45.0,36.2,31.1,26.4,22.3,71,49,33,30.31,30.08,8,1,10,0.00
2013-4-22,58.5,39.6,31.5,35.3,29.2,25.7,84,68,41,30.27,30.10,4,0,4,0.00
2013-4-23,62.5,45.7,32.2,46.0,36.3,26.6,84,70,52,30.12,29.82,6,1,7,0.00
2013-4-24,77.9,56.2,36.9,57.8,46.4,32.5,89,71,46,29.82,29.47,14,2,16,0.28
2013-4-25,67.5,52.1,43.0,42.2,34.1,28.4,66,52,32,30.03,29.78,12,2,14,0.00
2013-4-26,65.9,48.1,38.5,38.4,34.5,30.0,74,61,36,30.17,30.03,6,0,7,0.00
2013-4-27,41.8,40.3,39.1,33.7,33.0,32.3,77,75,72,30.13,30.12,0,0,1,0.00
2013-4-29,60.7,57.4,53.6,56.4,53.4,50.5,89,87,84,29.85,29.76,4,0,4,0.01
2013-4-30,59.0,56.5,54.2,55.6,53.0,50.9,91,88,85,30.02,29.83,5,1,6,0.04
2013-5-1,73.8,59.0,46.3,52.6,44.1,37.7,91,63,30,30.14,30.02,4,1,4,0.00
2013-5-2,72.9,53.9,36.9,48.2,41.3,31.9,88,65,38,30.16,30.04,4,1,4,0.00
2013-5-3,72.2,54.3,39.2,49.3,42.3,34.2,88,66,40,30.10,29.99,3,1,4,0.00
2013-5-4,65.3,48.1,38.0,46.7,39.4,32.0,85,73,50,30.06,29.95,6,1,6,0.00
2013-5-5,65.7,63.3,60.8,42.0,41.6,41.0,49,45,42,29.87,29.86,3,1,3,0.00
2013-5-27,66.8,66.6,66.4,45.3,44.8,44.4,46,46,45,29.66,29.66,1,0,2,0.00